Ellensburg, WA

2:22 PM PDT on March 24, 2017 (GMT -0700)
Bowers

Weather History for KELN - October, 2011

Change the Weather History Date:

Saturday, October 22, 2011

  Actual Average (KYKM) Record (KYKM)
Temperature  
Mean Temperature 61 °F -  
Max Temperature 70 °F 61 °F 76 °F (1952)
Min Temperature 52 °F 32 °F 20 °F (1984)
Degree Days  
Heating Degree Days 4    
Growing Degree Days 11 (Base 50)    
Moisture  
Dew Point 48 °F    
Average Humidity 69    
Maximum Humidity 83    
Minimum Humidity 49    
Precipitation  
Precipitation 0.01 in - - ()
Sea Level Pressure  
Sea Level Pressure 30.10 in    
Wind  
Wind Speed 9 mph (NW)    
Max Wind Speed 22 mph    
Max Gust Speed 28 mph    
Visibility 10 miles    
Events Rain    
Averages and records for this station are not official NWS values.
T = Trace of Precipitation, MM = Missing Value Source: NWS Daily Summary

Daily Weather History Graph

Daily Weather History Graph

Search for Another Location

Airport or City:

Trip Planner

Search our weather history database for the weather conditions in past years. The results will help you decide how hot, cold, wet, or windy it might be!

Date:

Astronomy

Oct. 22, 2011 Rise Set
Actual Time 7:29 AM PDT 6:02 PM PDT
Civil Twilight 6:58 AM PDT 6:33 PM PDT
Nautical Twilight 6:23 AM PDT 7:08 PM PDT
Astronomical Twilight 5:48 AM PDT 7:44 PM PDT
Moon 2:15 AM PDT (10/22) 3:38 PM PDT (10/22)
Length of Visible Light 11h 34m
Length of Day
10h 32m
Waning Crescent, 22% of the Moon is Illuminated
Oct 22
Waning Crescent
Oct 26
New
Nov 2
First Quarter
Nov 10
Full
Nov 18
Last Quarter

Hourly Weather History & Observations

Time (PDT) Temp. Dew Point Humidity Pressure Visibility Wind Dir Wind Speed Gust Speed Precip Events Conditions
12:53 AM 55.0 °F 46.9 °F 74% 30.17 in 10.0 mi NW 10.4 mph - N/A   Scattered Clouds
2:53 AM 54.0 °F 46.9 °F 77% 30.16 in 10.0 mi NW 8.1 mph - N/A   Mostly Cloudy
3:53 AM 54.0 °F 46.9 °F 77% 30.16 in 10.0 mi WSW 3.5 mph - N/A   Overcast
5:53 AM 52.0 °F 45.0 °F 77% 30.14 in 10.0 mi Calm Calm - N/A   Overcast
6:53 AM 53.1 °F 46.0 °F 77% 30.12 in 10.0 mi ENE 4.6 mph - N/A   Overcast
7:53 AM 53.1 °F 46.9 °F 80% 30.12 in 10.0 mi NE 3.5 mph - N/A   Overcast
8:53 AM 55.0 °F 48.0 °F 77% 30.11 in 10.0 mi SSE 4.6 mph - 0.00 in Rain Light Rain
9:53 AM 57.0 °F 46.9 °F 69% 30.13 in 10.0 mi Calm Calm - 0.00 in Rain Light Rain
10:53 AM 60.1 °F 50.0 °F 69% 30.10 in 10.0 mi Calm Calm - 0.01 in   Clear
11:53 AM 64.0 °F 51.1 °F 63% 30.10 in 10.0 mi NW 9.2 mph - N/A   Clear
12:53 PM 68.0 °F 52.0 °F 56% 30.09 in 10.0 mi NW 21.9 mph 25.3 mph N/A   Clear
1:53 PM 70.0 °F 50.0 °F 49% 30.09 in 10.0 mi NW 19.6 mph - N/A   Clear
2:53 PM 68.0 °F 48.9 °F 50% 30.08 in 10.0 mi NW 20.7 mph 27.6 mph N/A   Partly Cloudy
3:53 PM 66.0 °F 48.0 °F 52% 30.08 in 10.0 mi NW 16.1 mph - N/A   Scattered Clouds
4:53 PM 64.9 °F 48.0 °F 54% 30.07 in 10.0 mi NW 19.6 mph 24.2 mph N/A   Overcast
5:53 PM 61.0 °F 48.0 °F 62% 30.07 in 10.0 mi NW 16.1 mph - N/A   Partly Cloudy
6:53 PM 60.1 °F 48.0 °F 64% 30.08 in 10.0 mi NW 12.7 mph - N/A   Overcast
7:53 PM 57.9 °F 50.0 °F 75% 30.07 in 10.0 mi NNW 11.5 mph - 0.00 in   Overcast
8:53 PM 57.0 °F 50.0 °F 77% 30.08 in 10.0 mi WNW 4.6 mph - N/A   Mostly Cloudy
9:53 PM 55.0 °F 50.0 °F 83% 30.08 in 10.0 mi WNW 6.9 mph - 0.00 in   Mostly Cloudy
10:53 PM 57.9 °F 51.1 °F 78% 30.08 in 10.0 mi WNW 10.4 mph - 0.00 in   Mostly Cloudy
11:53 PM 57.9 °F 48.0 °F 70% 30.09 in 10.0 mi WNW 18.4 mph 26.5 mph N/A   Overcast